Terminal Aerodrome Forecast
Issued by NWS Bismarck, ND

Home | Current Version | Previous Version | Graphics & Text | Print | Product List | Glossary On
Versions: 1 2 3 4 5 6 7 8 9 10 11 12 13 14 15 16 17 18
195
FTUS43 KISN 101720
TAFISN
TAF
KISN 101720Z 1018/1118 01008KT P6SM OVC014
     FM110000 36008KT P6SM OVC008
     FM110700 03004KT 6SM BR OVC010=

USA.gov is the U.S. government's official web portal to all federal, state and local government web resources and services.